Vertical_Velocity
1 1 -2 -2 -4 3 1 0 1 -3 -2 3 -1 -2 -2 4 -3 -2 1 -2 2 -2 -5 1 -2 -3 -3
-2 -2 -0 2 -3 -8 -1 -0 -2 2 1 -5 0 -2 0 -4 2 0 -11 -11 -5 -3 -0 -2 -3 -5 -2
-0 -1 -1 -2 1 -2 -2 -5 -6 -5 -1 -3 1 -4 -5 -6 -4 -6 -4 -10 2 -8 1 -4 -1 -1 -3
5 -1 -3 -0 1 3 4 -2 -1 -2 -1 -3 -1 4 1 -7 -0 -3 -7 -1 3 -8 -5 1 -3 -1 2
-5 -1 -2 -1 -1 -2 -3 1 1 2 4 -6 13 -4 -1 -3 1 -7 6 -8 -1 1 -7 1 -2 -2 1
-3 -3 2 -2 1 -0 -3 1 4 -0 -4 -1 -3 -2 2 -4 8 4 9 7 -5 -4 -2 -2 -2 -1 3
3 3 -3 -1 -0 -5 -1 -3 -3 2 -5 -3 -8 -2 -5 -1 1 1 1 0 3 -10 2 -3 2 -1 -1
0 -6 -2 -1 0 2 -3 -4 3 1 2 -8 -5 -6 2 3 2 6 -7 0 3 -2 -2 -0 2 2 -2
2 -4 2 7 5 2 0 -6 1 -7 -1 -7 5 8 -2 -2 -5 -0 -2 -0 1 -2 1 1 12 7 3
3 -0 -1 3 -1 -0 -8 -3 -2 -4 2 3 -4 3 14 -5 -3 -2 -0 -1 -2 1 1 -2 0 -0 -1
-5 -3 1 -2 3 -1 -1 3 2 -3 -3 -4 5 -0 6 -5 -1 -1 -3 -3 -0 3 1 -1 -1 -1 0
-0 -9 8 -7 -5 3 -5 -3 -10 4 0 -4 -0 -10 2 1 1 -2 -4 -5 -1 2 2 2 1 -3 -1
-3 -0 -4 0 12 -2 -2 -22 1 11 3 2 -3 -8 2 1 1 -3 -1 -2 0 1 0 -2 -1 1 2
8 -5 7 6 -6 3 4 -2 -2 3 -2 8 -5 -3 0 -0 1 -2 -2 -2 -0 1 -0 0 -0 -1 0
-3 4 0 -3 2 4 -2 -9 0 -7 1 1 -2 -4 -0 -1 -1 -0 -1 -1 2 -1 0 -1 -0 0 1
-3 -0 -3 2 2 5 -7 -2 -2 2 2 2 -4 -4 -1 1 -2 -2 -2 -0 4 -2 -1 -1 1 2 -0
-4 -0 -3 6 2 0 -1 -1 0 -3 -0 -2 -2 0 2 2 -3 -2 -1 2 2 1 1 -0 -1 3 -1
Height
5753 5750 5748 5745 5743 5740 5737 5734 5729 5724 5720 5718 5714 5712 5709 5705 5700 5696 5692 5689 5688 5685 5682 5680 5679 5678 5676
5742 5740 5739 5736 5733 5730 5725 5721 5718 5713 5710 5707 5705 5702 5699 5695 5691 5686 5684 5680 5681 5678 5676 5674 5673 5672 5672
5732 5730 5728 5726 5722 5717 5714 5711 5706 5702 5700 5698 5694 5694 5690 5687 5684 5680 5675 5674 5672 5670 5667 5667 5667 5666 5666
5722 5720 5716 5714 5710 5708 5703 5699 5695 5692 5688 5688 5685 5683 5680 5678 5673 5671 5668 5665 5664 5662 5660 5661 5661 5660 5661
5709 5707 5703 5701 5699 5696 5693 5689 5686 5683 5681 5679 5674 5671 5669 5666 5665 5662 5659 5656 5656 5655 5654 5655 5654 5654 5655
5697 5695 5692 5690 5686 5684 5681 5678 5676 5673 5670 5668 5666 5662 5661 5656 5654 5651 5650 5647 5648 5647 5647 5648 5648 5648 5648
5683 5681 5680 5678 5675 5672 5670 5668 5665 5663 5660 5658 5655 5653 5650 5649 5646 5644 5641 5640 5640 5639 5639 5640 5641 5641 5643
5670 5670 5667 5664 5663 5661 5659 5657 5654 5652 5649 5648 5646 5641 5640 5638 5637 5635 5634 5633 5632 5632 5632 5633 5634 5636 5636
5658 5656 5655 5653 5651 5649 5647 5644 5644 5642 5639 5637 5634 5633 5628 5630 5628 5627 5626 5625 5625 5624 5625 5627 5629 5629 5630
5645 5645 5644 5641 5639 5636 5633 5634 5632 5628 5627 5627 5627 5624 5622 5621 5620 5618 5617 5617 5617 5617 5618 5619 5619 5620 5622
5634 5634 5633 5631 5628 5626 5624 5622 5618 5619 5618 5617 5617 5617 5614 5612 5611 5610 5610 5609 5609 5610 5610 5611 5611 5611 5612
5623 5622 5620 5618 5616 5616 5613 5612 5614 5609 5608 5608 5607 5608 5606 5603 5603 5602 5602 5601 5601 5601 5602 5603 5604 5604 5604
5611 5610 5609 5606 5605 5604 5603 5603 5602 5602 5599 5598 5599 5599 5598 5596 5595 5594 5594 5594 5594 5594 5595 5595 5595 5596 5598
5599 5598 5597 5596 5597 5594 5592 5592 5593 5593 5592 5590 5591 5589 5589 5588 5587 5587 5586 5586 5587 5587 5587 5588 5588 5589 5590
5588 5587 5587 5586 5585 5584 5582 5583 5584 5583 5583 5583 5582 5581 5581 5581 5580 5579 5578 5579 5579 5579 5579 5580 5581 5582 5583
5576 5577 5577 5576 5575 5575 5574 5574 5574 5574 5575 5575 5574 5573 5573 5573 5572 5572 5571 5571 5571 5570 5570 5571 5572 5574 5575
5566 5566 5566 5566 5566 5565 5565 5565 5565 5566 5566 5565 5565 5564 5565 5564 5564 5563 5564 5563 5563 5563 5563 5563 5563 5565 5565